Weather History for Forest City, IA

Change the Weather History Date:

Thursday, November 15, 2012

  Actual Average Record
Temperature  
Mean Temperature 40 °F -  
Max Temperature 51 °F 42 °F 55 °F (2013)
Min Temperature 30 °F 24 °F 5 °F (2014)
Degree Days  
Heating Degree Days 24    
Moisture  
Dew Point 29 °F    
Average Humidity 65    
Maximum Humidity 87    
Minimum Humidity 44    
Precipitation  
Precipitation 0.00 in - - ()
Sea Level Pressure  
Sea Level Pressure 30.26 in    
Wind  
Wind Speed 10 mph (WNW)    
Max Wind Speed 16 mph    
Max Gust Speed 21 mph    
Visibility 10 miles    
Events      
Averages and records for this station are not official NWS values.
T = Trace of Precipitation, MM = Missing Value Source: NWS Daily Summary

Daily Weather History Graph

Daily Weather History Graph

Search for Another Location

Airport:

Trip Planner

Search our weather history database for the weather conditions in past years. The results will help you decide how hot, cold, wet, or windy it might be!

Date:

Astronomy

Nov. 15, 2012 Rise Set
Actual Time 7:08 AM CST 4:49 PM CST
Civil Twilight 6:37 AM CST 5:20 PM CST
Nautical Twilight 6:02 AM CST 5:55 PM CST
Astronomical Twilight 5:29 AM CST 6:28 PM CST
Moon 9:06 AM CST (11/15) 6:40 PM CST (11/15)
Length of Visible Light 10h 43m
Length of Day
9h 41m
Waxing Crescent, 5% of the Moon is Illuminated
Nov 15
Waxing Crescent
Nov 20
First Quarter
Nov 28
Full
Dec 6
Last Quarter
Dec 13
New

Hourly Weather History & Observations

Time (CST) Temp. Windchill Dew Point Humidity Pressure Visibility Wind Dir Wind Speed Gust Speed Precip Events Conditions
12:15 AM 41.0 °F 35.2 °F 28.4 °F 61% 30.18 in 10.0 mi South 9.2 mph - N/A   Overcast
12:55 AM 41.0 °F 35.2 °F 26.6 °F 57% 30.17 in 10.0 mi South 9.2 mph - N/A   Overcast
1:15 AM 41.0 °F 34.7 °F 26.6 °F 57% 30.16 in 10.0 mi South 10.4 mph - N/A   Overcast
1:35 AM 41.0 °F 34.3 °F 26.6 °F 57% 30.17 in 10.0 mi South 11.5 mph - N/A   Overcast
1:55 AM 41.0 °F 34.7 °F 26.6 °F 57% 30.17 in 10.0 mi SSW 10.4 mph - N/A   Overcast
2:15 AM 41.0 °F 33.9 °F 26.6 °F 57% 30.17 in 10.0 mi South 12.7 mph - N/A   Overcast
2:35 AM 41.0 °F 35.2 °F 26.6 °F 57% 30.17 in 10.0 mi South 9.2 mph - N/A   Overcast
2:55 AM 41.0 °F 34.7 °F 26.6 °F 57% 30.17 in 10.0 mi South 10.4 mph - N/A   Mostly Cloudy
3:15 AM 41.0 °F 34.7 °F 26.6 °F 57% 30.16 in 10.0 mi SSW 10.4 mph - N/A   Overcast
3:55 AM 39.2 °F 32.5 °F 28.4 °F 65% 30.16 in 10.0 mi South 10.4 mph - N/A   Scattered Clouds
4:15 AM 39.2 °F 32.0 °F 28.4 °F 65% 30.16 in 10.0 mi South 11.5 mph - N/A   Clear
4:35 AM 39.2 °F 32.5 °F 28.4 °F 65% 30.15 in 10.0 mi South 10.4 mph - N/A   Clear
4:55 AM 39.2 °F 33.0 °F 28.4 °F 65% 30.15 in 10.0 mi SSW 9.2 mph - N/A   Clear
5:15 AM 37.4 °F 30.8 °F 28.4 °F 70% 30.16 in 10.0 mi SSW 9.2 mph - N/A   Scattered Clouds
5:35 AM 37.4 °F 31.4 °F 28.4 °F 70% 30.16 in 10.0 mi SSW 8.1 mph - N/A   Mostly Cloudy
5:55 AM 37.4 °F 31.4 °F 28.4 °F 70% 30.17 in 10.0 mi SSW 8.1 mph - N/A   Scattered Clouds
6:15 AM 37.4 °F 32.1 °F 28.4 °F 70% 30.17 in 10.0 mi SSW 6.9 mph - N/A   Scattered Clouds
6:35 AM 35.6 °F 30.7 °F 28.4 °F 75% 30.18 in 10.0 mi SSW 5.8 mph - N/A   Scattered Clouds
6:55 AM 35.6 °F 30.7 °F 28.4 °F 75% 30.18 in 10.0 mi SW 5.8 mph - N/A   Clear
7:15 AM 33.8 °F 27.7 °F 28.4 °F 81% 30.19 in 10.0 mi SSW 6.9 mph - N/A   Clear
7:35 AM 35.6 °F 30.7 °F 28.4 °F 75% 30.19 in 10.0 mi SSW 5.8 mph - N/A   Clear
7:55 AM 35.6 °F 29.2 °F 28.4 °F 75% 30.20 in 10.0 mi SW 8.1 mph - N/A   Clear
8:15 AM 35.6 °F 28.6 °F 30.2 °F 81% 30.20 in 10.0 mi WSW 9.2 mph - N/A   Clear
8:35 AM 37.4 °F 32.1 °F 30.2 °F 75% 30.20 in 10.0 mi SW 6.9 mph - N/A   Clear
8:55 AM 39.2 °F 32.5 °F 30.2 °F 70% 30.21 in 10.0 mi WSW 10.4 mph - N/A   Clear
9:15 AM 41.0 °F 35.8 °F 30.2 °F 65% 30.21 in 10.0 mi WSW 8.1 mph - N/A   Clear
9:35 AM 41.0 °F 34.3 °F 30.2 °F 65% 30.22 in 10.0 mi West 11.5 mph - N/A   Clear
9:55 AM 42.8 °F 37.0 °F 30.2 °F 61% 30.23 in 10.0 mi WNW 10.4 mph - N/A   Clear
10:15 AM 42.8 °F 37.0 °F 30.2 °F 61% 30.23 in 10.0 mi WNW 10.4 mph - N/A   Clear
10:35 AM 44.6 °F 38.8 °F 30.2 °F 57% 30.24 in 10.0 mi NW 11.5 mph - N/A   Clear
10:55 AM 44.6 °F 41.4 °F 30.2 °F 57% 30.24 in 10.0 mi NW 5.8 mph - N/A   Clear
11:15 AM 46.4 °F 41.9 °F 30.2 °F 53% 30.24 in 10.0 mi WNW 9.2 mph - N/A   Clear
11:35 AM 46.4 °F 41.5 °F 30.2 °F 53% 30.24 in 10.0 mi WNW 10.4 mph - N/A   Clear
11:55 AM 48.2 °F - 30.2 °F 50% 30.24 in 10.0 mi WNW 11.5 mph - N/A   Clear
12:15 PM 50.0 °F - 30.2 °F 47% 30.24 in 10.0 mi NW 13.8 mph 17.3 mph N/A   Clear
12:35 PM 50.0 °F - 30.2 °F 47% 30.24 in 10.0 mi NW 11.5 mph 17.3 mph N/A   Clear
12:55 PM 50.0 °F - 30.2 °F 47% 30.24 in 10.0 mi NW 13.8 mph - N/A   Clear
1:15 PM 50.0 °F - 32.0 °F 50% 30.24 in 10.0 mi NNW 16.1 mph 20.7 mph N/A   Clear
1:35 PM 50.0 °F - 32.0 °F 50% 30.24 in 10.0 mi NW 12.7 mph - N/A   Clear
1:55 PM 51.8 °F - 32.0 °F 47% 30.24 in 10.0 mi NW 13.8 mph 17.3 mph N/A   Clear
2:15 PM 51.8 °F - 32.0 °F 47% 30.25 in 10.0 mi NW 11.5 mph - N/A   Clear
2:35 PM 51.8 °F - 30.2 °F 44% 30.26 in 10.0 mi NNW 12.7 mph - N/A   Clear
2:55 PM 51.8 °F - 30.2 °F 44% 30.27 in 10.0 mi NW 11.5 mph - N/A   Clear
3:15 PM 50.0 °F - 30.2 °F 47% 30.27 in 10.0 mi NW 10.4 mph - N/A   Clear
3:35 PM 50.0 °F - 30.2 °F 47% 30.28 in 10.0 mi NNW 12.7 mph 16.1 mph N/A   Clear
3:55 PM 50.0 °F - 30.2 °F 47% 30.28 in 10.0 mi NW 11.5 mph 17.3 mph N/A   Clear
4:15 PM 46.4 °F 41.9 °F 32.0 °F 57% 30.29 in 10.0 mi NW 9.2 mph - N/A   Clear
4:35 PM 46.4 °F 41.9 °F 32.0 °F 57% 30.30 in 10.0 mi NW 9.2 mph - N/A   Clear
4:55 PM 44.6 °F 40.2 °F 32.0 °F 61% 30.31 in 10.0 mi NNW 8.1 mph - N/A   Clear
5:15 PM 42.8 °F 37.5 °F 32.0 °F 66% 30.32 in 10.0 mi NW 9.2 mph - N/A   Clear
5:35 PM 41.0 °F 35.2 °F 32.0 °F 70% 30.33 in 10.0 mi NW 9.2 mph - N/A   Clear
5:55 PM 41.0 °F 35.2 °F 32.0 °F 70% 30.33 in 10.0 mi NW 9.2 mph - N/A   Clear
6:15 PM 39.2 °F 33.6 °F 30.2 °F 70% 30.34 in 10.0 mi NW 8.1 mph - N/A   Clear
6:35 PM 37.4 °F 30.8 °F 32.0 °F 81% 30.35 in 10.0 mi NNW 9.2 mph - N/A   Clear
6:55 PM 37.4 °F 30.8 °F 32.0 °F 81% 30.36 in 10.0 mi NNW 9.2 mph - N/A   Clear
7:15 PM 37.4 °F 30.3 °F 30.2 °F 75% 30.36 in 10.0 mi NNW 10.4 mph - N/A   Clear
7:35 PM 35.6 °F 27.5 °F 30.2 °F 81% 30.37 in 10.0 mi NNW 11.5 mph - N/A   Clear
7:55 PM 35.6 °F 27.1 °F 30.2 °F 81% 30.37 in 10.0 mi NNW 12.7 mph - N/A   Clear
8:15 PM 33.8 °F 26.4 °F 30.2 °F 87% 30.37 in 10.0 mi NNW 9.2 mph - N/A   Clear
8:35 PM 33.8 °F 25.8 °F 28.4 °F 81% 30.38 in 10.0 mi NNW 10.4 mph - N/A   Clear
8:55 PM 33.8 °F 27.0 °F 28.4 °F 81% 30.39 in 10.0 mi NNW 8.1 mph - N/A   Clear
9:15 PM 32.0 °F 24.2 °F 28.4 °F 87% 30.39 in 10.0 mi NNW 9.2 mph - N/A   Clear
9:35 PM 32.0 °F 24.2 °F 26.6 °F 80% 30.39 in 10.0 mi NNW 9.2 mph - N/A   Clear
9:55 PM 32.0 °F 23.6 °F 26.6 °F 80% 30.39 in 10.0 mi NNW 10.4 mph - N/A   Clear
10:15 PM 32.0 °F 24.2 °F 26.6 °F 80% 30.40 in 10.0 mi NNW 9.2 mph - N/A   Clear
10:35 PM 30.2 °F 21.9 °F 26.6 °F 86% 30.41 in 10.0 mi NNW 9.2 mph - N/A   Clear
10:55 PM 30.2 °F 22.6 °F 26.6 °F 86% 30.41 in 10.0 mi North 8.1 mph - N/A   Clear
11:15 PM 30.2 °F 23.4 °F 24.8 °F 80% 30.41 in 10.0 mi NNW 6.9 mph - N/A   Clear
11:35 PM 30.2 °F 21.9 °F 24.8 °F 80% 30.42 in 10.0 mi NNW 9.2 mph - N/A   Clear
11:55 PM 30.2 °F 23.4 °F 23.0 °F 75% 30.43 in 10.0 mi NNW 6.9 mph - N/A   Clear